Location: Lombard
(41.8800°N, 88.0080°W)
Time: 15:04:32
(UTC-06:00)

X-37B - Visible Passes

Search period start: 01 December 2021 00:00
Search period end: 11 December 2021 00:00
Orbit: 330 x 341 km, 45.0° (Epoch: 20 November)

Date Brightness Start Highest point End Pass type
(mag) Time Alt. Az. Time Alt. Az. Time Alt. Az.
04 Dec 2.9 17:54:25 10° S 17:55:10 12° SSE 17:55:10 12° SSE visible
05 Dec 2.3 18:13:24 10° SW 18:14:56 23° S 18:14:56 23° S visible
06 Dec 2.8 16:59:52 10° S 17:01:13 13° SE 17:02:33 10° ESE visible
06 Dec 2.9 18:33:28 10° WSW 18:34:38 22° WSW 18:34:38 22° WSW visible
07 Dec 1.6 17:18:50 10° SW 17:21:24 30° SSE 17:23:02 17° E visible
07 Dec 3.9 18:53:57 10° W 18:54:16 12° W 18:54:16 12° W visible
08 Dec 0.3 17:38:53 10° WSW 17:41:45 72° SSE 17:42:38 39° E visible
09 Dec 0.5 17:59:22 10° W 18:02:11 59° NNW 18:02:11 59° NNW visible
10 Dec 2.2 18:20:01 10° W 18:21:44 28° WNW 18:21:44 28° WNW visible
